Weather History for KGTF - April, 2014

Change the Weather History Date:

Wednesday, April 2, 2014

  Actual Average Record
Temperature  
Mean Temperature 38 °F 39 °F  
Max Temperature 49 °F 51 °F 76 °F (1992)
Min Temperature 26 °F 28 °F -10 °F (1936)
Degree Days  
Heating Degree Days 27 26  
Month to date heating degree days 60 52  
Since 1 July heating degree days 6798 6510  
Cooling Degree Days 0 0  
Month to date cooling degree days 0 0  
Year to date cooling degree days 0 0  
Moisture  
Dew Point 28 °F    
Average Humidity 69    
Maximum Humidity 100    
Minimum Humidity 37    
Precipitation  
Precipitation T in 0.04 in 0.81 in (1955)
Month to date precipitation T 0.08  
Year to date precipitation 3.73 1.97  
Snow  
Snow T in 0.40 in 7.50 in (1955)
Month to date snowfall 0.3 0.8  
Since 1 July snowfall 70.6 52.7  
Snow Depth T in    
Sea Level Pressure  
Sea Level Pressure 29.86 in    
Wind  
Wind Speed 6 mph (SSW)    
Max Wind Speed 22 mph    
Max Gust Speed 25 mph    
Visibility 10 miles    
Events      
T = Trace of Precipitation, MM = Missing Value Source: NWS Daily Summary

Daily Weather History Graph

Daily Weather History Graph

Search for Another Location

Airport or City:

Trip Planner

Search our weather history database for the weather conditions in past years. The results will help you decide how hot, cold, wet, or windy it might be!

Date:

Astronomy

Apr. 02, 2014 Rise Set
Actual Time 7:02 AM MDT 7:56 PM MDT
Civil Twilight 6:30 AM MDT 8:28 PM MDT
Nautical Twilight 5:53 AM MDT 9:05 PM MDT
Astronomical Twilight 5:14 AM MDT 9:44 PM MDT
Moon 8:37 AM MDT (4/2) 11:36 PM MDT (4/2)
Length of Visible Light 13h 57m
Length of Day
12h 54m
Waxing Crescent, 10% of the Moon is Illuminated
Apr 2
Waxing Crescent
Apr 7
First Quarter
Apr 15
Full
Apr 22
Last Quarter
Apr 29
New

Hourly Weather History & Observations

Time (MDT) Temp. Windchill Dew Point Humidity Pressure Visibility Wind Dir Wind Speed Gust Speed Precip Events Conditions
12:50 AM 30.2 °F 26.7 °F 28.4 °F 93% 29.81 in 10.0 mi NNW 3.5 mph - 0.00 in   Overcast
12:53 AM 30.0 °F 26.5 °F 28.0 °F 92% 29.93 in 10.0 mi NNW 3.5 mph - 0.00 in   Overcast
1:53 AM 30.0 °F 26.5 °F 28.0 °F 92% 29.91 in 10.0 mi NW 3.5 mph - N/A   Overcast
2:53 AM 30.0 °F 25.2 °F 28.0 °F 92% 29.90 in 10.0 mi WNW 4.6 mph - N/A   Overcast
3:53 AM 30.0 °F 26.5 °F 28.0 °F 92% 29.88 in 10.0 mi North 3.5 mph - N/A   Overcast
4:53 AM 30.0 °F - 28.0 °F 92% 29.87 in 10.0 mi Calm Calm - N/A   Overcast
5:15 AM 30.2 °F - 28.4 °F 93% 29.77 in 10.0 mi Calm Calm - N/A   Overcast
6:53 AM 28.9 °F 23.9 °F 27.0 °F 92% 29.88 in 10.0 mi ESE 4.6 mph - N/A   Overcast
7:53 AM 30.0 °F 25.2 °F 28.0 °F 92% 29.88 in 10.0 mi South 4.6 mph - N/A   Overcast
8:53 AM 32.0 °F 24.8 °F 28.9 °F 88% 29.88 in 10.0 mi SSW 8.1 mph - N/A   Overcast
9:53 AM 35.1 °F 28.6 °F 28.9 °F 78% 29.86 in 10.0 mi South 8.1 mph - N/A   Overcast
10:49 AM 35.6 °F 30.7 °F 26.6 °F 70% 29.76 in 10.0 mi SSE 5.8 mph - N/A   Scattered Clouds
10:53 AM 37.0 °F 33.3 °F 27.0 °F 67% 29.86 in 10.0 mi Variable 4.6 mph - N/A   Partly Cloudy
11:21 AM 37.4 °F 34.9 °F 26.6 °F 65% 29.77 in 10.0 mi East 3.5 mph - N/A   Mostly Cloudy
11:53 AM 37.0 °F - 25.0 °F 62% 29.86 in 10.0 mi Calm Calm - N/A   Overcast
12:42 PM 39.2 °F 37.0 °F 26.6 °F 61% 29.76 in 10.0 mi South 3.5 mph - N/A   Partly Cloudy
12:53 PM 41.0 °F - 26.1 °F 55% 29.84 in 10.0 mi Calm Calm - N/A   Partly Cloudy
1:53 PM 45.0 °F 41.8 °F 26.1 °F 48% 29.82 in 10.0 mi North 5.8 mph - N/A   Mostly Cloudy
2:53 PM 45.0 °F 43.5 °F 24.1 °F 44% 29.81 in 10.0 mi Variable 3.5 mph - N/A   Overcast
3:53 PM 46.4 °F 45.2 °F 21.2 °F 37% 29.74 in 10.0 mi WSW 3.5 mph - N/A   Mostly Cloudy
4:53 PM 44.1 °F 41.5 °F 27.0 °F 51% 29.83 in 10.0 mi SSW 4.6 mph - 0.00 in   Overcast
5:53 PM 44.1 °F 35.4 °F 28.0 °F 53% 29.86 in 10.0 mi NNW 21.9 mph - N/A   Overcast
6:53 PM 41.0 °F 33.5 °F 30.9 °F 67% 29.89 in 10.0 mi NE 13.8 mph - N/A   Scattered Clouds
7:04 PM 39.2 °F 31.6 °F 30.2 °F 70% 29.80 in 10.0 mi NE 12.7 mph - N/A   Scattered Clouds
7:53 PM 37.9 °F 32.7 °F 32.0 °F 79% 29.93 in 10.0 mi NE 6.9 mph - N/A   Overcast
8:53 PM 33.1 °F 27.7 °F 30.9 °F 92% 29.96 in 10.0 mi ESE 5.8 mph - N/A   Clear
9:53 PM 30.9 °F 24.3 °F 28.9 °F 92% 29.97 in 10.0 mi South 6.9 mph - N/A   Clear
10:53 PM 27.0 °F 19.5 °F 26.1 °F 96% 30.00 in 10.0 mi SW 6.9 mph - N/A   Clear
11:53 PM 28.0 °F 19.3 °F 26.1 °F 92% 30.00 in 10.0 mi SSW 9.2 mph - N/A   Clear